Wind_Speed
3 4 6 9 8 5 6 3 5 2 4 5 6 5 7 4 3 6 4 3 6 9 22 29 29 30 33 27 31 27 23 22 21 13 13 8 8 8 12 9 8 6 5 4
5 6 13 8 8 11 9 7 5 3 2 2 3 7 6 7 5 6 4 5 0 1 7 19 32 32 31 33 34 31 28 25 20 15 13 9 10 10 11 12 10 7 6 3
7 10 6 12 13 12 8 10 5 3 5 5 3 5 5 5 4 6 5 5 3 6 6 8 26 34 32 28 34 33 32 27 22 19 15 9 9 11 13 12 9 10 7 6
6 12 10 8 10 12 7 10 12 8 5 4 9 4 5 7 9 8 11 8 5 5 3 8 22 24 31 35 31 29 33 30 22 20 12 14 14 11 13 17 13 11 9 6
9 5 2 4 5 7 6 17 16 13 9 4 3 2 4 7 8 13 16 11 8 8 9 7 14 23 23 29 33 35 35 30 23 19 15 16 16 10 11 15 14 14 12 9
8 5 3 4 2 2 7 9 4 3 4 2 4 7 3 3 4 6 11 14 11 11 11 6 17 16 22 22 21 32 32 28 23 20 17 17 17 11 9 15 19 16 14 10
6 6 5 3 2 6 6 6 3 1 1 6 6 6 4 6 2 4 11 15 14 12 11 7 9 14 16 22 24 28 30 28 25 25 20 17 15 8 6 14 17 16 13 13
2 9 5 6 8 7 3 7 5 5 3 6 4 1 4 6 2 2 6 10 11 14 11 10 14 19 19 27 29 28 29 29 24 25 24 20 15 11 8 14 13 13 15 16
2 5 7 0 4 8 4 1 7 3 1 4 2 3 6 5 4 7 12 8 16 18 16 12 14 19 18 22 29 32 30 32 28 26 25 22 17 15 13 10 15 12 13 11
3 3 3 6 4 3 6 3 2 3 1 2 2 2 3 4 4 4 4 4 7 13 14 10 10 19 19 19 25 31 32 36 32 29 26 23 21 19 15 12 11 14 12 12
3 3 6 5 7 3 7 5 4 5 4 3 1 5 6 5 4 7 5 6 9 10 10 9 11 17 23 18 17 21 33 33 33 32 28 25 22 21 19 19 15 11 12 11
3 5 2 1 7 14 6 3 5 4 3 2 3 5 2 7 7 7 7 4 4 8 7 7 9 17 18 15 11 10 14 15 28 31 30 27 26 23 21 21 16 13 13 13
1 3 3 8 4 6 8 3 2 3 3 2 4 5 3 4 7 3 3 4 6 4 4 9 12 14 15 17 19 14 14 5 7 17 24 25 26 24 23 22 20 20 16 16
8 3 5 5 3 2 3 2 2 5 3 3 5 3 3 7 5 6 3 3 1 5 5 3 6 10 15 18 19 20 19 12 2 10 11 22 24 22 20 19 18 17 17 18
5 4 4 4 5 3 3 2 2 3 4 6 5 2 5 3 1 2 4 4 6 6 4 4 2 7 13 16 14 15 18 13 11 3 13 12 19 19 16 16 18 14 13 16
2 3 4 4 0 2 3 5 4 5 3 5 6 4 6 2 4 3 7 6 7 6 3 4 10 12 11 14 16 10 7 10 9 9 21 14 10 9 8 6 13 9 9 13
4 7 3 4 3 3 4 2 3 2 2 2 5 2 3 2 3 3 5 6 4 6 2 4 3 7 12 18 19 16 15 14 17 24 19 18 18 18 8 6 12 15 14 4
6 6 3 3 3 1 6 3 3 7 5 4 2 1 4 3 2 5 3 6 4 4 7 6 6 11 6 11 15 16 22 17 18 21 17 15 23 20 15 12 9 10 8 4
3 5 4 4 3 5 3 2 6 7 4 4 6 1 4 3 4 5 6 6 7 5 6 13 13 13 14 12 14 18 20 17 15 19 22 19 14 14 14 14 12 11 6 4
8 6 5 3 3 2 5 7 3 3 5 10 8 6 6 1 3 2 5 7 10 13 11 12 17 18 16 15 20 24 21 22 16 11 12 17 14 12 11 11 13 11 12 12
4 4 4 2 2 2 5 6 3 2 7 6 5 5 5 3 3 5 8 8 12 13 15 18 20 15 15 15 22 23 20 24 18 17 17 16 13 12 15 19 17 14 13 12
5 5 2 3 2 2 5 2 3 5 3 5 6 7 8 8 7 8 8 6 10 10 15 14 17 18 16 19 21 18 19 19 20 21 19 17 16 16 14 16 15 13 14 15
1 6 6 6 6 8 8 7 3 5 5 5 9 9 8 11 8 8 5 7 10 14 14 16 17 17 15 15 19 19 15 16 16 17 18 17 15 15 14 14 14 11 11 12
1 4 4 4 4 11 10 1 4 5 4 5 5 12 11 9 7 8 6 6 8 12 11 14 16 16 16 15 16 15 14 15 17 17 15 14 16 17 17 16 15 13 10 10
5 7 6 1 4 5 5 6 9 8 5 4 6 4 7 13 12 10 8 7 14 15 14 14 15 15 14 14 13 11 13 15 15 16 16 12 11 12 12 14 14 15 13 10
2 6 4 5 10 7 9 7 8 10 9 8 8 7 3 8 8 9 6 15 16 18 17 15 15 16 15 13 12 10 10 11 14 13 12 11 10 10 12 14 16 15 13 11
Wind_Direction
319 73 217 226 197 186 145 218 207 213 165 162 204 182 209 196 227 220 190 332 186 164 177 175 182 193 192 195 186 183 191 198 190 193 174 173 161 168 194 188 163 170 182 166
4 236 246 233 208 151 159 193 227 322 159 165 188 238 216 174 226 214 151 244 296 194 163 159 183 186 188 190 187 185 192 190 192 181 195 190 175 174 184 185 184 184 179 223
177 238 225 236 264 174 196 184 174 229 146 200 77 282 195 215 207 223 223 205 243 204 177 141 165 179 186 186 187 191 196 188 189 195 202 191 166 168 173 190 183 183 178 184
220 258 229 254 256 177 178 196 196 171 140 214 152 271 234 192 209 207 229 217 187 221 258 150 164 178 179 182 178 180 181 183 186 191 207 214 196 176 190 191 190 190 190 197
263 267 285 258 214 154 213 164 191 185 176 115 214 10 281 141 229 221 218 213 179 200 220 172 153 179 192 181 183 177 177 184 185 189 206 211 205 205 191 198 204 185 196 202
242 268 202 230 302 129 141 189 108 114 75 351 213 180 297 195 231 222 219 231 202 202 209 204 168 154 184 191 185 185 185 189 194 190 200 207 215 207 225 213 207 207 192 209
329 286 273 233 353 343 74 68 -0 13 108 227 220 133 236 277 172 245 221 211 205 203 198 192 162 175 166 187 185 197 192 194 195 188 199 206 208 206 250 202 202 202 214 205
218 318 209 184 184 195 139 143 159 212 206 245 261 181 278 296 31 303 3 208 190 214 193 197 180 174 178 187 191 198 204 201 203 197 194 209 215 201 210 208 207 220 224 221
119 295 331 240 157 131 274 169 186 150 109 81 282 9 282 307 40 39 354 192 198 202 202 188 182 166 178 181 187 197 205 206 203 203 198 202 213 208 206 205 215 204 208 204
185 3 298 289 121 245 149 181 37 16 181 191 296 307 248 297 317 332 22 308 235 211 207 186 177 170 179 180 197 198 209 208 204 207 208 201 200 205 213 207 208 212 218 203
69 89 296 19 11 12 16 10 18 107 92 150 151 273 222 230 294 297 293 239 202 202 196 186 172 156 165 155 180 200 208 208 206 206 205 204 205 207 211 214 212 205 202 193
327 125 45 190 113 89 86 73 107 102 305 111 143 261 276 222 239 258 293 273 152 178 184 135 131 154 147 141 137 143 191 210 220 210 204 202 203 207 211 218 218 221 206 207
333 16 24 348 11 9 66 22 63 128 82 232 150 259 329 319 288 16 337 350 144 97 163 143 149 135 131 125 110 120 156 188 260 227 219 215 212 208 216 220 224 221 219 225
92 96 142 184 202 182 55 113 147 115 119 185 232 253 358 356 32 48 27 17 128 133 126 107 128 138 128 133 135 123 129 140 50 8 248 223 218 212 211 217 225 223 218 217
103 111 119 149 144 132 188 215 128 153 192 166 227 209 233 249 311 142 131 73 45 91 99 96 158 144 140 144 154 150 139 123 65 134 296 187 200 199 203 212 220 232 241 231
41 181 143 160 110 55 264 236 201 223 221 261 260 245 257 298 290 84 79 128 114 99 111 213 188 179 158 162 165 169 183 191 149 161 247 253 243 214 171 179 194 194 205 222
144 139 122 215 325 320 323 205 169 241 79 192 207 275 243 266 349 30 84 84 106 104 17 22 185 158 184 163 185 183 187 181 186 211 230 245 245 230 205 134 128 121 131 122
149 121 111 161 11 14 240 133 138 148 176 184 102 334 290 292 346 58 353 105 100 133 102 49 67 112 120 172 183 192 197 199 199 196 219 228 245 244 233 206 171 141 117 98
163 126 117 133 166 285 52 236 170 190 202 202 139 95 131 125 118 48 39 44 62 36 74 82 80 89 95 117 147 162 182 193 190 203 221 231 228 211 203 191 187 187 175 175
68 76 109 115 128 166 256 250 209 101 311 194 155 142 133 121 98 96 92 83 67 54 67 102 99 97 98 109 116 128 155 164 150 159 210 225 217 208 198 196 185 160 149 145
40 22 99 101 109 282 251 48 112 129 242 121 129 148 139 154 181 161 89 73 79 88 70 86 86 89 100 112 113 112 105 110 123 117 128 143 157 152 148 146 148 147 137 131
149 124 161 98 123 168 349 354 190 217 27 116 139 169 193 133 172 124 100 118 112 97 102 94 89 91 100 109 106 95 100 121 127 124 117 118 120 117 117 119 119 126 132 129
95 170 177 163 212 217 215 204 289 136 150 194 165 163 161 153 155 104 130 112 110 109 101 109 103 93 89 97 104 96 102 110 114 114 118 122 124 121 120 118 117 119 123 120
79 141 106 123 199 222 246 317 223 163 162 173 181 157 170 142 134 132 132 129 122 121 117 108 97 93 95 103 105 106 112 113 112 106 105 109 116 115 114 114 118 119 117 114
192 154 143 358 38 66 334 223 169 163 154 148 158 152 144 149 160 149 149 152 146 141 126 120 111 106 105 108 110 114 118 122 116 118 114 113 111 106 98 99 93 93 95 91
178 165 134 197 193 169 197 214 173 162 181 182 162 147 192 157 150 127 137 146 138 132 139 134 133 135 134 129 128 128 138 138 129 120 117 120 120 111 114 111 99 88 87 86
Height
771 792 803 789 788 786 795 804 806 796 788 799 805 806 801 800 800 800 794 800 801 795 796 802 809 816 817 821 824 827 830 835 837 837 837 840 841 840 840 842 842 843 843 843
789 800 775 771 771 784 791 801 805 795 789 797 800 805 799 803 801 796 797 798 796 798 797 800 806 814 816 817 821 825 829 832 836 837 837 840 840 840 841 842 844 844 845 844
797 778 762 768 770 785 794 798 803 798 792 790 800 809 805 799 796 795 796 793 792 799 799 798 805 810 812 816 820 823 826 830 834 837 838 840 841 841 843 844 845 845 845 847
781 756 764 770 774 768 799 773 781 788 801 819 793 832 807 801 800 797 794 795 796 798 798 799 801 808 809 812 815 819 825 830 832 836 837 840 841 842 843 844 845 845 846 846
780 765 763 769 762 756 773 765 775 781 796 801 810 823 802 799 806 795 788 791 794 797 798 798 801 804 808 811 813 816 822 828 831 834 838 838 840 841 843 844 845 846 846 847
767 745 749 752 743 746 752 766 779 790 815 834 806 813 812 812 795 789 790 787 790 791 793 796 799 802 806 812 816 817 822 826 831 833 836 838 840 841 842 842 844 846 847 848
771 761 748 740 757 754 761 793 828 830 839 835 800 812 803 792 781 781 778 779 784 786 789 794 796 800 803 809 812 818 820 824 828 831 835 838 841 841 841 841 842 844 846 848
800 798 758 742 755 768 768 789 825 831 839 822 800 808 807 784 775 777 767 770 779 784 785 789 790 795 800 804 809 815 819 821 825 828 831 835 838 840 841 842 843 844 846 847
792 784 745 740 739 752 768 786 779 803 808 824 820 806 797 781 773 769 769 768 770 772 777 784 786 788 797 801 805 809 815 818 821 825 828 833 836 837 838 841 843 843 844 845
765 791 757 746 738 743 757 758 793 813 820 822 819 815 811 791 781 780 779 778 776 771 774 779 785 784 793 798 803 807 810 814 816 821 824 828 833 836 837 838 840 841 842 843
761 781 777 758 773 775 783 792 793 802 817 831 839 825 791 790 785 782 777 772 771 771 773 775 781 785 790 795 802 803 806 811 814 818 820 823 828 832 835 837 838 839 841 841
758 788 799 780 773 766 778 791 803 823 818 831 830 821 778 780 780 780 772 762 762 765 769 773 779 787 787 792 798 799 805 809 813 815 817 819 823 828 830 834 836 837 838 838
758 795 817 803 790 781 792 793 796 806 817 824 828 818 777 776 774 772 772 764 762 764 768 773 778 782 787 793 796 798 799 805 814 816 818 819 820 823 826 828 831 833 835 836
758 792 803 821 802 794 801 790 794 804 822 820 818 795 788 781 775 775 775 771 765 766 774 774 777 781 785 788 791 797 801 806 810 812 815 817 818 819 822 824 827 829 829 832
764 797 793 792 787 785 788 788 790 797 799 812 796 789 789 780 775 777 772 772 773 775 778 777 783 782 786 786 788 791 797 799 802 803 818 813 815 816 817 818 821 824 825 827
765 796 789 795 786 788 791 786 787 790 791 796 793 789 784 775 774 775 774 775 778 779 779 779 777 783 785 785 785 787 788 789 797 797 813 814 814 816 815 815 815 818 822 825
772 792 804 808 800 797 804 784 789 788 785 787 795 784 784 780 779 780 779 777 778 778 778 778 779 780 781 783 783 785 788 790 794 800 807 809 807 814 817 816 816 816 818 820
775 793 805 815 806 816 788 773 776 784 784 781 784 784 784 784 783 781 781 778 778 775 775 779 780 779 783 784 783 786 791 791 795 800 803 800 804 809 813 815 815 816 816 820
758 783 805 815 821 804 782 784 783 786 787 780 783 783 780 778 781 784 779 779 779 779 776 779 783 783 784 784 787 792 794 799 799 800 802 802 804 809 809 810 813 815 815 818
763 769 787 808 807 812 791 772 764 767 793 772 772 780 781 780 790 787 782 783 784 785 784 784 789 788 787 787 791 794 796 797 802 802 801 803 806 807 807 810 813 817 818 821
786 793 804 811 809 794 779 768 768 796 791 767 772 776 780 784 781 781 783 786 788 789 790 791 793 795 795 794 794 794 798 798 802 802 804 805 807 809 809 810 814 816 818 822
783 801 808 813 809 802 770 778 785 772 768 768 774 775 776 779 781 777 782 789 790 792 791 794 795 798 799 798 799 800 800 803 803 804 807 810 810 811 815 815 817 820 822 822
779 779 795 798 797 773 762 769 762 763 768 768 771 772 776 778 778 777 784 789 791 794 795 798 798 799 801 801 799 803 806 807 808 808 811 814 817 816 817 818 821 824 824 825
756 763 776 782 775 773 761 761 763 762 767 768 769 770 774 776 779 783 788 791 792 795 799 799 799 799 801 803 804 809 812 810 811 813 815 818 819 819 820 820 821 824 826 826
753 755 765 770 765 763 761 758 759 762 765 769 770 770 772 776 781 783 789 793 795 795 798 801 801 802 803 806 809 812 813 814 815 817 818 824 825 823 822 821 823 821 825 828
746 754 767 775 757 757 759 754 757 761 763 766 769 772 774 777 780 784 789 791 793 796 800 802 804 807 808 810 811 813 814 817 817 819 820 823 825 827 827 827 826 826 827 829